Theta_e
321 323 323 322 321 322 321 321 321 321 320 322 322 321 321 321 321 322 322 323 324 324 324 325 325 324 325 324 325 328 330 331 330 329 327 324 321 319 317 316 315 315 315 315
320 322 319 320 321 322 322 322 321 320 320 320 319 319 318 319 319 320 321 322 322 323 323 323 324 324 324 325 324 324 327 328 331 330 328 326 325 322 320 318 316 316 315 315
318 317 318 319 320 322 322 322 322 320 318 318 318 318 317 317 318 319 319 320 320 321 322 322 323 323 324 323 325 324 324 326 324 326 329 328 327 326 324 321 320 318 316 316
317 316 317 317 318 318 320 317 318 319 320 319 317 318 317 316 316 316 318 318 319 320 321 321 321 322 322 322 323 325 324 324 326 324 327 328 327 327 324 322 321 320 320 317
318 317 318 318 318 317 318 317 319 319 318 317 317 319 316 316 316 316 317 319 319 319 319 320 321 321 322 323 323 323 324 324 325 327 326 326 327 326 326 326 323 321 320 321
316 316 316 318 317 318 318 319 319 319 319 320 318 317 316 315 316 320 319 320 320 321 320 321 322 321 321 322 322 324 324 323 324 327 327 327 326 325 327 327 326 324 322 320
315 315 316 317 318 318 319 319 316 320 318 318 316 317 316 316 317 318 317 320 320 320 320 320 318 315 314 314 315 322 324 324 324 326 327 327 328 326 325 327 326 326 325 324
315 314 315 315 317 318 318 318 318 318 320 318 315 319 318 318 318 320 320 320 319 317 314 313 315 314 315 316 315 311 317 320 323 325 327 328 328 328 327 327 327 326 325 324
313 314 312 314 315 315 317 318 316 318 314 319 319 319 317 317 318 318 319 319 318 316 315 314 315 315 315 316 316 316 313 314 320 322 326 328 329 329 328 328 328 327 326 325
312 312 312 312 314 314 315 316 318 318 318 315 313 312 315 318 318 318 317 318 315 314 314 316 316 315 315 315 315 316 316 314 310 313 318 323 328 329 329 329 329 328 327 327
313 315 313 312 314 315 315 318 317 316 315 316 315 314 314 313 316 315 314 315 314 314 316 317 316 316 315 315 316 315 315 316 313 309 312 315 318 323 328 329 329 329 328 327
313 314 317 314 314 313 314 315 316 316 316 315 316 317 313 312 314 315 315 316 316 317 317 317 316 316 316 316 315 315 314 315 315 313 308 312 313 316 320 323 325 327 328 325
313 313 310 313 314 314 316 315 314 314 315 314 314 315 312 313 311 315 316 317 317 317 316 315 315 315 314 313 313 313 313 314 315 315 312 308 313 314 315 318 320 323 324 320
313 312 310 311 312 313 315 315 315 315 316 315 315 315 313 312 313 313 315 316 316 315 314 314 314 314 311 308 309 312 312 313 314 314 309 307 307 311 313 314 316 320 323 321
312 310 311 312 311 314 313 313 313 314 315 316 314 314 313 313 312 314 316 316 315 314 313 312 308 307 306 307 307 308 310 312 313 313 308 308 307 307 309 312 319 321 324 317
311 311 308 307 311 311 310 312 313 315 315 314 314 314 313 315 315 315 315 314 312 310 308 306 306 305 305 306 306 308 310 312 312 313 309 308 307 307 307 311 316 315 315 317
311 309 310 307 309 308 308 310 310 312 314 314 315 314 314 314 314 315 313 311 308 306 305 305 305 304 304 305 305 308 308 309 311 311 307 307 308 308 308 308 312 315 319 318
310 307 310 302 307 312 307 309 309 309 311 312 313 313 313 314 313 309 307 306 306 305 304 304 304 304 304 304 305 306 307 307 308 309 307 307 307 307 308 309 313 315 317 316
310 309 311 309 304 305 307 307 308 310 310 310 311 313 314 310 309 305 305 304 303 302 302 303 303 303 303 303 304 305 306 307 306 305 306 306 307 308 307 308 313 315 316 318
307 309 309 310 308 304 307 306 308 309 310 308 311 309 307 308 309 305 303 302 302 302 302 303 303 302 303 304 303 304 305 306 307 307 305 304 305 307 308 307 307 313 317 318
310 310 310 310 303 304 305 306 309 307 307 306 307 305 305 305 303 302 302 301 301 302 302 302 302 302 303 303 303 303 303 305 305 306 306 304 303 305 307 308 308 308 308 308
309 310 310 310 310 308 305 306 307 305 304 304 304 303 302 301 302 302 301 301 299 298 299 300 301 302 301 302 303 303 302 302 303 304 304 305 304 304 304 306 308 308 308 308
307 307 306 307 305 302 303 303 303 303 303 302 301 301 300 299 299 299 298 298 297 297 296 296 297 299 299 300 301 302 301 301 302 302 303 303 304 303 303 304 306 307 308 308
302 302 303 303 303 301 301 300 301 301 301 300 300 299 298 296 296 296 297 296 296 296 296 296 296 298 299 299 299 300 301 301 301 301 301 302 302 302 302 302 303 304 307 308
300 301 299 300 302 300 300 299 299 298 298 297 296 296 294 293 293 293 294 295 295 295 295 295 296 296 296 297 298 299 300 302 303 302 301 301 301 301 301 301 302 302 303 304
300 299 300 300 300 300 298 297 295 295 294 293 293 292 292 292 291 292 293 293 293 294 294 294 294 294 295 296 296 296 297 299 300 302 302 301 300 300 300 299 299 299 301 301
Wind_Speed
18 6 14 14 14 11 10 12 12 9 14 1 7 11 11 18 22 24 24 27 28 31 30 27 26 26 25 27 30 32 33 37 41 40 42 43 43 42 41 39 36 36 35 34
6 16 13 12 14 14 13 12 13 11 5 1 8 19 17 22 26 31 27 27 29 28 28 31 27 26 27 29 31 36 38 38 42 43 44 46 44 44 41 40 39 40 39 38
14 5 19 14 15 16 16 14 9 10 12 6 8 18 16 20 31 33 32 33 37 37 35 32 32 29 26 29 33 35 38 41 42 44 44 45 42 44 45 45 46 44 44 43
13 21 8 17 14 11 12 8 12 14 5 4 4 8 14 13 13 10 22 25 27 29 33 35 33 29 28 29 29 34 36 37 43 44 46 48 50 50 47 46 46 45 45 47
8 11 14 14 17 10 8 6 8 8 5 9 11 8 6 5 9 11 10 19 21 20 22 17 20 19 18 19 24 32 35 39 41 46 48 49 51 50 49 49 47 45 45 47
16 11 12 12 8 9 5 4 3 3 2 6 7 9 7 7 8 2 10 15 6 4 8 7 8 13 17 20 22 25 32 38 42 45 48 51 52 51 51 51 51 49 46 45
13 20 4 3 16 13 9 7 2 4 4 7 6 8 18 8 12 8 11 12 6 10 8 6 7 10 10 12 18 24 28 34 41 46 48 50 52 51 52 53 52 51 51 50
11 8 19 9 9 8 13 9 4 6 5 2 9 9 8 6 17 13 9 6 9 6 5 7 6 12 17 18 15 13 26 30 33 41 45 46 47 51 51 55 53 53 54 53
15 12 5 13 7 9 10 14 13 5 3 1 4 7 10 14 7 13 14 14 5 2 5 5 13 15 23 17 16 18 16 21 26 34 39 42 45 47 50 52 54 53 54 53
4 5 9 11 13 15 8 6 4 4 5 4 6 6 10 5 11 11 9 11 10 2 2 9 14 19 22 22 20 20 19 17 17 23 34 39 41 45 47 48 52 53 53 53
4 4 7 13 13 13 12 7 6 6 5 4 2 5 7 13 2 5 9 12 6 5 11 14 19 22 23 20 22 25 22 20 19 20 23 33 37 41 42 44 48 53 51 50
16 1 3 13 3 9 16 18 12 4 5 4 2 8 6 6 7 13 10 5 2 9 15 23 24 24 25 25 27 25 24 21 19 19 21 26 31 34 39 40 42 45 47 39
14 4 3 1 3 2 9 18 19 15 6 7 5 10 5 6 6 15 7 3 9 14 17 19 22 22 27 27 27 26 25 25 24 23 22 22 26 31 34 38 39 41 42 32
20 4 8 12 2 7 7 9 15 14 12 21 15 26 20 11 11 18 18 14 12 12 15 17 19 25 28 30 25 25 25 23 23 25 24 23 23 27 29 32 33 38 40 28
9 8 14 14 9 3 4 4 8 13 22 12 24 22 34 6 9 12 27 14 12 16 17 23 25 27 28 29 27 25 24 23 22 24 25 22 21 23 28 28 29 29 34 32
8 3 2 6 10 9 2 8 15 18 18 17 23 22 29 13 20 25 14 15 14 16 18 21 24 27 30 28 26 23 24 21 23 22 23 23 20 19 24 27 29 26 28 27
16 7 4 6 7 2 7 27 18 19 15 15 12 24 20 19 12 8 4 5 8 11 16 19 23 26 28 28 27 26 26 22 19 21 22 21 21 19 19 24 25 29 30 30
14 7 2 2 3 9 10 5 16 22 20 18 19 23 12 8 2 8 7 5 7 11 16 19 22 25 25 27 27 24 21 21 18 17 19 20 20 19 20 23 24 29 28 23
10 7 4 4 5 7 12 5 6 7 13 19 22 24 14 4 8 11 4 7 8 12 16 20 21 23 24 25 25 25 22 20 20 19 17 18 21 20 18 21 24 23 26 25
2 13 8 5 5 8 3 4 18 6 9 6 4 2 7 9 4 3 5 9 11 14 17 20 20 22 23 24 25 25 24 22 22 21 21 19 16 18 16 18 16 19 20 20
6 7 15 10 4 7 5 5 5 6 4 7 14 9 7 4 4 2 7 11 13 15 17 18 20 22 23 24 25 25 24 23 22 22 22 22 20 16 15 15 13 10 13 13
11 9 6 5 7 14 13 5 10 5 8 13 12 9 7 4 2 5 8 11 16 19 19 20 20 21 22 25 26 27 25 24 22 20 20 20 21 20 17 14 15 11 11 11
7 7 6 10 7 2 9 3 11 12 16 13 10 8 4 2 3 7 10 11 15 18 22 23 23 22 21 21 24 26 27 27 25 22 19 18 18 18 19 18 13 16 13 13
3 3 4 4 5 5 10 8 9 10 12 13 11 8 5 4 5 8 11 13 15 18 21 24 27 26 23 22 21 22 24 26 27 26 22 19 19 18 16 17 17 16 16 16
5 8 5 1 2 2 6 10 13 12 11 10 8 6 5 6 6 9 12 15 18 20 21 22 24 27 27 24 22 22 22 23 25 26 26 22 18 19 17 17 18 17 17 17
5 5 5 4 7 6 3 17 14 12 10 8 7 6 6 7 10 12 14 16 19 21 22 23 23 25 26 27 26 23 21 22 25 25 25 25 22 19 17 17 16 17 16 15
Wind_Direction
196 200 206 203 223 238 255 231 240 241 236 288 266 267 272 278 272 272 268 266 257 260 266 267 263 258 249 242 235 238 242 243 239 234 227 228 229 230 234 234 234 235 234 232
176 227 208 216 218 227 249 261 271 271 287 149 282 277 270 261 260 261 264 268 268 265 260 262 260 259 253 250 246 238 239 242 243 239 237 235 235 237 240 240 237 233 235 235
216 243 212 227 221 224 226 230 261 296 303 322 317 290 256 250 250 251 254 255 257 257 260 260 260 259 263 263 251 250 247 240 242 245 241 235 235 240 239 239 239 235 235 238
232 231 232 222 233 221 237 215 244 257 295 275 314 288 289 297 282 256 251 256 253 253 255 255 257 264 260 257 263 256 252 247 244 243 240 238 237 237 243 243 243 240 236 239
209 202 200 206 219 230 243 226 258 248 272 282 251 271 278 262 297 278 254 239 249 259 259 261 266 271 273 267 262 256 251 249 248 244 245 244 242 243 246 247 248 246 241 238
235 209 208 219 191 213 191 230 192 284 38 250 211 226 246 228 248 87 15 322 319 339 266 240 249 278 282 273 272 258 252 249 247 244 246 245 246 246 243 243 245 248 247 243
206 228 265 216 205 194 196 146 156 214 208 237 199 193 244 300 296 277 300 313 353 321 314 337 317 318 347 337 276 259 255 248 246 244 245 248 246 248 248 246 247 247 248 248
202 206 199 183 207 181 189 180 181 203 190 268 200 225 246 213 252 259 260 281 348 57 88 95 72 352 355 348 344 313 254 257 248 246 245 247 249 246 249 249 249 252 253 254
196 228 169 178 164 197 188 211 220 332 112 174 231 285 299 281 233 245 261 283 145 65 81 30 348 331 335 339 331 336 332 269 253 243 242 245 248 248 248 247 250 250 254 255
171 219 225 174 164 229 218 136 167 204 203 230 256 268 246 304 232 222 252 182 110 42 291 331 338 327 333 328 329 329 324 317 285 262 245 238 245 250 251 251 248 250 251 253
221 304 172 150 201 188 205 179 241 168 205 196 274 250 214 226 322 132 82 74 59 335 334 339 333 330 330 330 325 319 320 316 315 296 268 248 239 243 250 253 254 253 256 257
214 265 166 201 178 211 218 221 202 192 178 233 3 262 295 346 67 94 90 88 45 349 333 327 332 331 330 326 318 314 312 309 311 311 290 267 255 245 244 251 256 256 253 258
184 190 144 315 264 271 228 223 225 240 278 209 163 253 199 7 193 150 146 61 18 343 331 330 332 329 323 326 325 321 318 309 308 308 301 283 264 252 251 249 254 256 254 257
174 150 209 212 131 141 204 208 226 231 229 241 242 264 256 293 303 318 332 360 357 347 342 337 326 323 320 320 322 320 321 317 311 310 304 294 277 263 254 254 251 249 249 261
166 225 217 241 254 113 165 186 226 235 237 228 244 246 265 226 251 292 332 330 0 2 349 336 333 330 327 323 318 312 317 318 311 316 313 310 294 272 265 259 255 250 249 272
164 208 152 246 242 259 213 219 228 235 250 256 265 268 258 302 315 299 316 3 13 350 339 331 334 339 340 336 328 322 322 318 313 314 317 312 304 287 267 254 249 253 261 256
189 149 137 245 191 94 294 241 230 231 222 201 226 245 266 260 260 282 308 356 16 341 332 332 336 341 345 345 336 329 326 322 316 318 316 312 307 300 284 263 251 252 263 269
192 151 118 205 87 204 241 179 221 225 235 232 240 251 248 244 203 92 80 55 10 336 332 335 340 344 348 350 344 336 332 330 319 317 319 318 313 307 302 282 258 255 249 246
194 158 177 203 199 288 292 189 157 180 245 227 233 248 242 176 102 78 64 12 346 329 325 330 337 341 344 348 350 347 342 336 329 320 320 322 321 317 310 299 276 265 253 246
310 191 193 172 197 216 271 314 184 114 266 174 213 211 139 130 160 151 336 332 334 332 334 336 338 339 339 344 348 348 348 344 334 329 327 325 323 317 317 305 293 283 263 253
188 188 201 206 227 275 187 165 131 153 223 105 117 102 108 105 122 218 314 322 329 332 333 336 340 343 342 342 343 344 344 344 343 336 329 323 321 315 309 305 295 292 283 267
183 189 199 197 213 252 155 131 166 170 128 139 145 144 128 142 258 304 328 330 329 331 332 332 335 340 342 340 340 340 341 340 338 337 334 329 322 314 305 296 293 277 275 274
198 197 183 182 213 124 159 121 154 167 162 169 173 170 188 217 284 310 322 332 335 335 336 337 339 339 343 341 340 338 338 337 336 335 334 332 327 318 308 300 289 282 265 266
251 191 174 102 210 180 177 176 182 180 173 174 186 199 211 235 266 292 307 321 327 329 331 332 333 337 341 340 340 336 335 336 337 336 334 333 328 321 312 300 292 283 279 271
195 142 157 265 140 104 211 209 199 184 179 178 188 206 232 264 283 292 305 314 318 319 321 323 324 326 330 332 333 332 333 333 331 334 336 334 331 326 319 309 300 291 284 274
194 167 164 213 182 176 138 189 188 184 186 197 209 232 251 274 288 294 301 306 308 311 313 315 318 318 319 321 325 323 322 324 325 327 326 328 330 332 324 315 307 300 296 284